Weather History for Fitchburg, MA

Change the Weather History Date:

Thursday, January 31, 2013

  Actual Average (KORH) Record (KORH)
Temperature  
Mean Temperature 44 °F 25 °F  
Max Temperature 60 °F 32 °F 59 °F (2013)
Min Temperature 28 °F 17 °F -10 °F (1920)
Degree Days  
Heating Degree Days 21 40  
Month to date heating degree days 1266  
Since 1 July heating degree days 3773  
Cooling Degree Days 0 0  
Month to date cooling degree days 0  
Year to date cooling degree days 0  
Moisture  
Dew Point 36 °F    
Average Humidity 69    
Maximum Humidity 90    
Minimum Humidity 34    
Precipitation  
Precipitation 0.74 in 0.11 in 0.84 in (1914)
Month to date precipitation 3.49  
Year to date precipitation 3.49  
Sea Level Pressure  
Sea Level Pressure 29.23 in    
Wind  
Wind Speed 17 mph (WSW)    
Max Wind Speed 29 mph    
Max Gust Speed 46 mph    
Visibility 8 miles    
Events Rain    
T = Trace of Precipitation, MM = Missing Value Source: NWS Daily Summary

Daily Weather History Graph

Daily Weather History Graph

Search for Another Location

Airport:

Trip Planner

Search our weather history database for the weather conditions in past years. The results will help you decide how hot, cold, wet, or windy it might be!

Date:

Astronomy

Jan. 31, 2013 Rise Set
Actual Time 7:01 AM EST 4:59 PM EST
Civil Twilight 6:31 AM EST 5:29 PM EST
Nautical Twilight 5:58 AM EST 6:03 PM EST
Astronomical Twilight 5:25 AM EST 6:36 PM EST
Moon 10:06 PM EST (1/31) 8:52 AM EST (1/31)
Length of Visible Light 10h 57m
Length of Day
9h 57m
Waning Gibbous, 80% of the Moon is Illuminated
Jan 31
Waning Gibbous
Feb 3
Last Quarter
Feb 10
New
Feb 17
First Quarter
Feb 25
Full

Hourly Weather History & Observations

Time (EST) Temp. Windchill Dew Point Humidity Pressure Visibility Wind Dir Wind Speed Gust Speed Precip Events Conditions
12:52 AM 59.0 °F - 55.9 °F 90% 29.36 in 8.0 mi South 16.1 mph 21.9 mph N/A   Overcast
1:04 AM 60.8 °F - 55.4 °F 82% 29.34 in 10.0 mi South 15.0 mph 23.0 mph N/A   Overcast
1:52 AM 59.0 °F - 55.9 °F 90% 29.30 in 8.0 mi South 16.1 mph 25.3 mph 0.03 in Rain Rain
2:52 AM 60.1 °F - 55.9 °F 86% 29.22 in 7.0 mi South 17.3 mph 32.2 mph 0.03 in Rain Light Rain
3:52 AM 60.1 °F - 57.0 °F 90% 29.14 in 9.0 mi South 18.4 mph 29.9 mph 0.06 in Rain Light Rain
4:52 AM 60.1 °F - 57.0 °F 90% 29.08 in 8.0 mi South 20.7 mph 28.8 mph 0.04 in Rain Rain
5:52 AM 60.1 °F - 57.0 °F 90% 29.00 in 5.0 mi South 13.8 mph 39.1 mph 0.27 in Rain Rain
6:31 AM 60.8 °F - 55.4 °F 82% 29.02 in 7.0 mi SSW 17.3 mph 29.9 mph 0.12 in Rain Rain
6:52 AM 60.1 °F - 55.9 °F 86% 29.02 in 5.0 mi SSW 13.8 mph 27.6 mph 0.17 in Rain Rain
7:52 AM 57.9 °F - 53.1 °F 84% 28.97 in 10.0 mi South 11.5 mph 20.7 mph 0.01 in   Scattered Clouds
8:44 AM 59.0 °F - 51.8 °F 77% 28.97 in 10.0 mi South 18.4 mph 32.2 mph N/A   Overcast
8:52 AM 53.1 °F - 46.0 °F 77% 29.01 in 2.5 mi West 28.8 mph 46.0 mph 0.03 in Rain Light Rain
8:55 AM 48.2 °F - 42.8 °F 82% 29.01 in 1.5 mi West 18.4 mph 46.0 mph 0.02 in Rain Heavy Rain
9:07 AM 46.4 °F 38.5 °F 42.8 °F 87% 29.04 in 2.5 mi West 21.9 mph 38.0 mph 0.06 in Rain Heavy Rain
9:17 AM 44.6 °F 37.2 °F 39.2 °F 81% 29.05 in 3.0 mi WNW 17.3 mph 32.2 mph 0.08 in Rain Rain
9:28 AM 44.6 °F 36.1 °F 39.2 °F 81% 29.05 in 6.0 mi West 21.9 mph 38.0 mph 0.08 in Rain Light Rain
9:52 AM 42.1 °F 33.6 °F 36.0 °F 79% 29.08 in 5.0 mi West 18.4 mph 40.3 mph 0.10 in Rain Light Rain
10:52 AM 45.0 °F 35.6 °F 32.0 °F 60% 29.14 in 10.0 mi West 27.6 mph 44.9 mph 0.00 in   Partly Cloudy
11:52 AM 44.1 °F 35.2 °F 28.9 °F 55% 29.20 in 10.0 mi West 23.0 mph 39.1 mph N/A   Mostly Cloudy
12:52 PM 44.1 °F 36.8 °F 27.0 °F 51% 29.21 in 10.0 mi WNW 16.1 mph 28.8 mph N/A   Mostly Cloudy
1:52 PM 42.1 °F 31.5 °F 18.0 °F 38% 29.26 in 10.0 mi West 28.8 mph 43.7 mph N/A   Partly Cloudy
2:52 PM 43.0 °F 35.1 °F 16.0 °F 34% 29.31 in 10.0 mi West 17.3 mph 29.9 mph N/A   Scattered Clouds
3:52 PM 39.9 °F 31.4 °F 18.0 °F 41% 29.35 in 10.0 mi WNW 16.1 mph 23.0 mph N/A   Overcast
4:52 PM 39.0 °F 32.3 °F 16.0 °F 39% 29.38 in 10.0 mi West 10.4 mph 29.9 mph N/A   Scattered Clouds
5:52 PM 36.0 °F 29.0 °F 18.0 °F 48% 29.43 in 10.0 mi West 9.2 mph - N/A   Partly Cloudy
6:52 PM 34.0 °F 26.6 °F 19.0 °F 54% 29.47 in 10.0 mi West 9.2 mph 21.9 mph 0.00 in   Clear
7:52 PM 32.0 °F 23.6 °F 19.9 °F 61% 29.51 in 9.0 mi West 10.4 mph 17.3 mph 0.00 in   Scattered Clouds
8:52 PM 32.0 °F 21.2 °F 12.0 °F 44% 29.53 in 10.0 mi West 16.1 mph 28.8 mph N/A   Clear
9:52 PM 30.9 °F 19.4 °F 15.1 °F 52% 29.57 in 10.0 mi WNW 17.3 mph 25.3 mph N/A   Scattered Clouds
10:52 PM 28.9 °F 17.7 °F 16.0 °F 58% 29.58 in 10.0 mi West 15.0 mph 26.5 mph 0.00 in   Clear
11:52 PM 28.9 °F 16.9 °F 15.1 °F 56% 29.60 in 10.0 mi West 17.3 mph 24.2 mph N/A   Mostly Cloudy